Temperature
7 7 7 7 7 7 7 7 7 7 7 7 6 6 6 6 6 6 6 6 6 6 5 5 5 5 5 5 5 5 5 5 4 4 4 4 4 4 4 5 5 4 5
7 7 7 7 7 7 7 7 6 6 6 6 6 6 6 6 6 6 6 6 5 5 5 5 5 5 5 5 5 5 5 4 4 4 4 4 4 4 4 4 4 4 4
6 6 6 6 6 6 6 6 6 6 6 6 6 6 6 6 6 5 5 5 5 5 5 5 5 5 4 5 4 4 4 4 4 4 4 4 4 4 4 4 4 4 4
6 6 6 6 6 6 6 6 6 6 6 6 5 5 5 5 5 5 5 5 5 5 5 5 4 4 4 4 4 4 4 4 4 3 3 3 3 3 3 3 3 4 3
5 5 5 5 6 6 6 6 5 5 5 5 5 5 5 5 5 5 5 5 5 5 5 4 4 4 4 4 4 4 4 4 3 3 3 3 3 3 3 3 3 3 3
5 5 5 5 5 5 5 5 5 5 5 5 5 5 5 5 5 5 5 5 4 4 4 4 4 4 4 4 4 4 3 3 3 3 3 3 3 3 3 2 2 2 2
5 5 5 5 5 5 5 5 5 5 5 4 4 4 4 5 4 5 4 4 4 4 4 4 4 4 4 3 3 3 3 3 3 3 2 2 2 2 2 2 2 2 2
4 4 4 4 5 5 5 4 4 4 4 4 4 4 4 4 4 4 4 4 4 4 4 3 3 3 3 3 3 3 3 3 2 2 2 2 2 2 2 2 2 2 2
4 4 4 4 4 4 4 4 4 4 4 4 4 4 4 4 4 4 4 4 4 3 3 3 3 3 3 3 3 3 2 2 2 2 2 2 2 2 1 1 1 1 1
4 4 4 4 4 4 4 4 4 4 4 4 4 4 4 4 4 4 4 3 3 3 3 3 3 2 2 2 2 2 2 2 2 2 2 2 1 1 1 1 1 1 0
3 3 3 4 4 4 4 4 3 3 3 3 3 3 3 3 3 3 3 3 3 3 2 2 2 2 2 2 2 2 2 2 1 1 1 1 1 1 1 1 0 0 -0
2 3 3 3 3 3 3 3 3 3 3 3 3 3 3 3 3 3 3 3 3 2 2 2 2 2 2 2 1 1 1 1 1 1 1 1 1 1 1 0 0 -0 -1
2 2 2 2 3 3 3 3 3 3 2 2 2 2 2 2 2 2 2 2 2 2 2 2 1 1 1 1 1 1 1 1 1 1 1 0 0 0 0 0 -0 -0 -1
2 2 2 2 2 2 2 2 2 2 2 2 2 2 2 2 2 2 2 2 1 2 1 1 1 1 1 1 0 0 0 0 0 0 0 -0 -0 -0 -0 -0 -1 -1 -1
1 1 1 2 2 2 2 2 2 2 1 1 1 1 1 1 1 1 1 1 1 1 1 1 1 1 1 0 0 0 -0 -0 -0 -0 -0 -0 -0 -1 -1 -1 -1 -1 -1
1 1 1 1 1 1 1 1 1 1 1 1 1 1 1 1 1 1 1 1 1 1 1 1 0 0 0 -0 -0 -0 -0 -0 -1 -1 -1 -1 -1 -1 -1 -1 -2 -2 -2
0 0 0 0 1 1 1 1 1 0 0 0 0 0 0 0 0 0 1 0 0 0 0 0 -0 -0 -1 -1 -1 -1 -1 -1 -1 -1 -1 -1 -1 -2 -2 -2 -2 -2 -2
-0 -0 -0 0 0 0 0 0 0 0 0 0 -0 -0 -0 -0 -0 0 0 0 0 -0 -0 -1 -1 -1 -1 -1 -1 -1 -1 -1 -1 -1 -1 -2 -2 -2 -2 -2 -3 -3 -3
-1 -0 -0 -0 -0 -0 -0 -0 -0 -0 -0 -0 -0 -0 -1 -1 -0 -0 -0 -0 -1 -1 -1 -1 -1 -1 -1 -1 -1 -1 -1 -2 -2 -2 -2 -2 -2 -2 -2 -3 -3 -3 -3
-1 -1 -1 -1 -1 -1 -1 -1 -1 -1 -1 -1 -1 -1 -1 -1 -1 -1 -1 -1 -1 -2 -2 -2 -2 -2 -2 -2 -2 -2 -2 -2 -2 -2 -2 -2 -2 -3 -3 -3 -3 -3 -3
-1 -1 -1 -1 -1 -1 -1 -1 -1 -1 -1 -1 -2 -2 -1 -1 -1 -2 -2 -2 -2 -2 -2 -2 -2 -2 -2 -2 -2 -2 -2 -2 -2 -2 -2 -3 -3 -3 -3 -3 -3 -3 -3
-2 -2 -2 -2 -2 -2 -2 -2 -2 -2 -2 -2 -2 -2 -2 -2 -2 -2 -2 -2 -2 -2 -2 -2 -2 -2 -2 -2 -2 -2 -2 -3 -3 -3 -3 -3 -3 -3 -3 -3 -3 -4 -4
-2 -2 -2 -2 -2 -2 -2 -2 -2 -2 -2 -2 -2 -2 -2 -2 -2 -2 -2 -2 -2 -2 -2 -2 -2 -2 -2 -2 -3 -3 -3 -3 -3 -3 -3 -3 -3 -4 -4 -4 -4 -4 -4
-3 -3 -2 -2 -2 -2 -2 -2 -2 -3 -3 -3 -3 -3 -3 -3 -3 -3 -3 -3 -3 -3 -3 -3 -3 -3 -3 -3 -3 -3 -3 -3 -3 -3 -4 -4 -4 -4 -4 -4 -4 -4 -4
-3 -3 -3 -3 -3 -3 -3 -3 -3 -3 -3 -3 -3 -3 -3 -3 -3 -3 -3 -3 -3 -3 -3 -3 -3 -3 -3 -3 -3 -3 -3 -3 -4 -4 -4 -4 -4 -4 -4 -4 -4 -5 -5
-4 -4 -4 -4 -4 -4 -4 -4 -4 -4 -4 -4 -4 -4 -4 -3 -3 -3 -3 -3 -3 -3 -3 -3 -3 -3 -3 -3 -3 -4 -4 -4 -4 -4 -4 -4 -4 -5 -5 -5 -5 -5 -5
Wind_Speed
2 2 1 2 2 1 1 2 2 2 2 2 2 2 2 2 2 2 2 2 2 2 2 3 3 3 2 2 2 2 2 2 4 5 3 4 4 4 5 5 5 5 6
2 2 2 1 1 1 1 2 2 2 2 2 2 2 2 2 2 2 3 2 2 2 2 2 3 2 2 2 1 2 2 1 2 4 5 4 4 5 4 4 5 5 6
1 2 1 1 1 2 2 2 2 1 1 1 1 1 2 2 2 2 2 2 2 2 2 2 2 2 2 2 2 2 1 1 1 2 4 4 4 4 5 5 5 4 6
1 1 2 2 2 2 2 2 2 1 1 1 1 1 2 2 2 2 2 1 1 2 1 2 2 2 2 2 2 1 1 1 1 1 2 3 3 4 4 4 5 4 5
1 1 2 2 2 2 2 2 1 1 1 1 1 1 1 1 2 1 1 1 1 1 1 1 1 1 2 1 1 1 0 1 1 1 2 3 3 4 4 3 4 5 5
1 2 2 2 1 1 1 1 1 1 1 0 1 1 1 1 2 1 1 0 1 1 1 2 1 1 2 2 2 2 1 1 1 2 2 3 3 3 3 4 4 4 4
1 1 1 0 1 2 1 1 1 1 1 0 1 1 1 2 2 1 1 0 0 1 1 1 2 2 2 1 2 3 3 4 3 1 2 3 3 3 3 4 4 3 3
1 1 1 1 1 1 0 1 1 1 1 1 1 1 1 2 2 2 1 0 0 0 0 0 0 1 1 2 2 3 3 4 4 3 1 2 2 2 2 2 3 3 2
1 2 2 1 1 0 0 0 1 0 1 1 1 1 1 2 2 2 2 0 1 1 1 1 1 1 2 3 3 3 4 4 6 7 6 6 6 6 5 3 3 3 4
2 2 2 1 1 1 1 0 1 0 1 1 1 1 1 1 2 2 2 1 1 1 1 1 2 2 3 3 3 2 2 3 3 5 6 7 7 7 8 4 2 2 3
3 2 2 1 0 1 1 1 1 1 1 1 1 1 1 2 3 3 2 1 1 1 1 1 1 3 3 4 4 3 3 3 3 3 4 4 4 4 5 4 3 2 2
2 2 1 2 1 1 2 1 2 2 2 1 1 2 2 2 3 3 2 2 2 2 1 1 1 3 5 6 5 5 5 5 3 3 3 3 3 3 4 4 5 4 2
2 2 2 2 2 2 2 2 2 2 1 1 1 1 2 3 3 4 3 3 4 3 2 4 4 5 5 5 7 7 5 4 3 3 3 2 2 2 3 3 4 4 4
2 2 2 2 3 3 2 2 2 1 1 1 1 1 1 2 2 2 2 2 4 4 3 4 6 7 6 6 6 5 4 3 2 2 1 2 2 2 3 3 3 3 3
2 2 2 2 2 3 3 2 2 1 1 1 1 1 0 1 2 3 3 2 2 3 4 3 4 4 4 4 3 3 3 3 3 2 2 2 2 3 3 3 3 3 3
2 2 1 1 2 2 3 3 6 5 5 5 5 3 2 3 4 5 5 6 6 7 5 4 3 3 2 2 2 2 2 2 2 2 2 2 2 2 3 3 3 2 3
2 1 1 1 2 2 2 2 3 4 7 7 6 6 6 6 6 6 7 7 7 7 5 3 2 2 1 1 1 1 2 2 2 2 2 2 2 2 2 2 3 2 3
2 2 2 1 1 2 2 2 2 2 3 3 4 6 6 6 7 7 7 7 5 4 3 2 1 1 1 1 1 1 1 2 2 2 2 2 2 2 2 2 2 2 3
1 1 1 1 2 2 2 2 2 2 2 2 2 3 5 5 6 7 7 4 3 2 2 2 1 1 1 1 1 1 1 1 1 1 1 2 2 1 2 2 2 3 3
1 2 2 1 2 2 2 2 2 2 2 2 2 2 2 3 3 3 3 3 2 1 1 1 1 1 1 1 1 1 1 1 1 1 1 2 1 1 1 2 2 2 2
1 1 2 2 1 1 2 2 2 2 2 1 1 2 4 2 2 1 1 1 1 1 1 1 1 1 1 1 1 1 1 1 1 2 2 2 1 1 2 2 2 2 2
1 1 1 1 1 1 2 1 1 1 1 1 1 2 3 3 2 1 1 1 1 1 1 1 1 1 1 1 1 1 1 2 2 2 2 2 1 1 1 1 2 2 2
1 1 1 1 1 2 2 1 1 1 1 1 1 1 1 2 1 1 1 1 2 2 2 2 1 1 2 2 2 2 2 3 3 2 2 2 1 1 1 2 2 2 2
2 2 2 2 2 1 1 1 1 1 1 1 1 1 1 1 1 1 1 2 2 2 2 2 2 2 3 3 2 2 3 3 3 3 3 2 2 2 2 2 2 2 2
2 2 1 1 1 1 1 1 1 1 1 1 1 1 1 1 1 2 2 2 2 2 3 3 3 3 4 4 3 3 4 4 4 3 2 2 2 2 2 2 2 2 2
2 1 1 1 1 1 1 1 1 1 1 1 1 1 1 1 1 2 2 2 2 2 3 3 4 4 4 4 4 4 4 4 4 4 2 1 2 2 2 2 2 1 2
Wind_Direction
197 210 215 233 233 217 228 244 244 245 246 235 241 250 259 271 274 259 259 262 259 271 275 260 262 261 253 260 254 252 248 230 270 303 314 322 327 327 327 336 336 335 337
203 206 222 240 230 224 239 249 241 244 244 246 247 250 261 272 272 264 260 263 257 264 271 272 272 272 262 260 249 253 255 247 250 288 309 320 321 319 323 333 338 343 345
208 202 224 257 242 239 239 242 243 245 258 268 259 254 268 275 273 268 260 261 263 262 261 262 267 258 266 273 264 262 264 281 265 263 298 314 317 326 331 333 338 343 347
215 204 226 248 246 246 245 244 241 233 237 253 262 270 269 271 275 275 270 273 283 283 271 257 253 241 244 250 258 260 262 287 294 281 306 316 322 325 333 334 337 344 343
250 231 242 252 254 260 247 241 235 227 242 245 256 287 292 269 280 299 279 288 294 321 325 298 279 287 294 294 293 275 257 267 285 288 305 319 324 330 329 325 324 330 339
270 268 272 258 253 240 243 236 213 228 262 255 250 273 301 298 324 326 351 329 330 337 328 332 330 331 339 341 352 358 5 327 288 297 303 308 310 313 320 325 328 338 338
299 288 286 255 255 237 231 223 213 213 222 242 265 285 283 304 335 335 6 62 355 311 321 340 346 350 358 10 21 22 13 1 343 305 301 307 307 309 318 330 333 334 320
324 307 287 246 251 258 219 224 255 239 220 227 255 272 270 303 337 328 335 84 97 333 312 320 3 5 11 53 66 39 19 14 6 8 350 324 328 332 324 312 316 327 318
319 310 299 262 228 188 155 260 280 235 187 200 243 261 278 311 342 0 39 98 62 4 359 42 52 51 31 57 72 58 35 21 23 33 33 31 26 18 15 15 4 360 336
303 296 300 287 200 180 195 227 357 59 146 150 52 6 323 311 354 28 50 95 80 28 27 24 27 37 49 56 74 81 58 15 24 25 27 25 27 21 17 18 358 347 330
316 322 334 335 274 177 161 88 75 71 78 76 55 11 353 351 2 20 37 79 123 76 39 14 18 43 58 55 57 76 81 60 50 42 32 26 21 18 15 14 7 349 331
348 2 9 7 24 74 100 85 79 87 85 65 47 19 4 353 358 2 16 49 75 96 70 42 42 54 59 59 61 64 63 58 59 52 42 27 17 8 1 5 8 6 353
24 21 21 34 45 63 87 87 73 75 92 79 59 30 2 358 0 17 30 55 71 81 80 69 65 64 62 63 60 58 54 57 58 51 33 11 357 349 354 357 2 7 8
44 26 21 49 55 55 62 67 74 67 95 98 90 52 7 1 5 17 32 67 78 75 73 70 65 64 62 56 52 45 40 48 54 51 20 359 357 2 6 1 359 354 2
49 37 33 49 71 65 59 53 64 54 93 124 130 149 124 5 358 32 63 66 81 90 86 75 63 54 49 43 41 35 29 30 31 22 24 14 7 5 1 359 5 7 8
56 39 40 56 73 78 76 56 46 51 55 68 69 77 69 59 63 70 71 69 74 87 88 83 71 61 51 42 34 23 23 25 18 15 16 9 0 355 353 357 5 9 358
66 45 41 55 80 85 82 83 60 38 46 57 63 67 67 66 72 76 76 75 74 79 77 79 78 68 45 32 25 25 14 3 7 14 6 354 348 345 347 349 354 357 349
58 64 69 63 85 89 87 85 88 79 51 34 39 52 59 64 71 72 74 75 66 57 52 60 56 53 37 16 8 8 8 5 4 354 344 338 336 337 336 336 345 346 342
59 62 69 66 70 79 82 84 78 77 69 51 39 38 45 55 66 65 72 70 74 51 34 29 26 18 8 352 347 354 3 354 342 332 325 326 327 333 334 332 336 341 344
60 71 65 81 81 79 82 88 86 80 73 59 45 31 27 51 56 51 54 56 64 42 14 358 353 349 337 327 335 345 346 333 325 319 314 317 317 317 317 324 329 330 329
60 78 72 79 88 89 92 96 96 92 88 74 39 32 49 74 76 66 58 42 31 359 338 334 332 329 325 318 312 298 291 292 291 291 297 303 304 306 304 305 310 313 318
70 74 82 97 101 100 103 106 105 107 98 84 46 33 43 54 56 43 27 358 339 328 315 297 289 301 302 289 276 271 267 273 280 283 282 283 287 295 298 304 308 314 318
85 89 87 81 84 97 94 96 106 108 104 92 80 59 49 46 38 24 6 353 352 348 347 339 316 317 325 317 298 266 257 261 264 265 264 266 270 273 282 290 293 301 311
93 96 95 91 88 93 99 100 101 100 101 96 76 56 35 24 10 355 350 353 353 350 350 344 327 315 319 321 309 286 278 278 269 258 250 241 246 255 262 274 279 283 290
95 94 89 86 84 86 84 81 77 71 68 65 59 28 5 3 354 345 350 349 344 339 338 340 339 328 318 311 308 296 289 287 276 267 244 238 240 251 257 261 265 275 277
101 96 89 83 79 77 83 80 65 53 38 14 1 344 338 338 332 333 337 340 334 329 327 333 331 324 319 314 306 300 294 289 283 274 248 223 228 242 247 256 254 259 266
Height
1461 1462 1463 1464 1464 1465 1465 1465 1465 1465 1465 1464 1463 1463 1462 1462 1461 1460 1459 1459 1458 1457 1456 1456 1455 1455 1454 1453 1452 1452 1451 1449 1446 1444 1443 1442 1440 1438 1436 1434 1432 1429 1426
1459 1460 1460 1461 1461 1461 1462 1462 1462 1462 1462 1461 1461 1460 1460 1459 1458 1457 1456 1455 1455 1454 1453 1453 1452 1452 1451 1450 1449 1448 1448 1447 1445 1442 1441 1439 1438 1436 1434 1431 1429 1426 1423
1457 1457 1458 1458 1458 1458 1458 1459 1459 1459 1458 1458 1458 1457 1457 1456 1455 1454 1454 1453 1452 1451 1451 1450 1449 1449 1448 1447 1447 1446 1445 1444 1443 1441 1439 1437 1436 1434 1431 1429 1427 1424 1421
1455 1455 1455 1455 1455 1455 1456 1456 1456 1456 1456 1455 1455 1454 1454 1453 1453 1452 1451 1450 1449 1449 1448 1448 1447 1446 1445 1445 1444 1444 1443 1442 1441 1439 1437 1436 1434 1432 1430 1427 1424 1422 1419
1453 1453 1453 1453 1453 1453 1453 1453 1453 1453 1453 1453 1452 1452 1451 1451 1450 1450 1449 1448 1447 1446 1446 1445 1445 1444 1444 1443 1442 1442 1441 1440 1439 1437 1435 1434 1432 1430 1428 1426 1423 1420 1418
1451 1451 1451 1451 1451 1450 1450 1450 1450 1450 1450 1450 1450 1449 1449 1448 1448 1448 1447 1446 1445 1444 1443 1443 1443 1442 1442 1441 1441 1440 1440 1438 1437 1435 1434 1432 1431 1429 1427 1425 1422 1419 1416
1449 1449 1449 1448 1448 1448 1448 1448 1448 1448 1448 1448 1447 1447 1447 1446 1446 1446 1445 1444 1443 1443 1442 1441 1440 1440 1440 1439 1439 1439 1438 1437 1436 1435 1433 1432 1430 1429 1427 1424 1422 1420 1417
1447 1447 1447 1446 1446 1446 1445 1445 1445 1445 1445 1445 1445 1445 1445 1445 1444 1444 1444 1443 1442 1441 1440 1440 1439 1439 1438 1438 1437 1437 1436 1435 1434 1434 1432 1431 1429 1428 1426 1424 1422 1419 1416
1445 1445 1445 1444 1444 1443 1443 1443 1443 1443 1444 1444 1444 1443 1443 1443 1443 1442 1442 1441 1440 1439 1439 1438 1438 1438 1437 1437 1436 1435 1434 1434 1433 1432 1431 1430 1428 1427 1425 1423 1421 1418 1415
1443 1443 1443 1442 1442 1442 1442 1442 1442 1442 1442 1442 1442 1442 1442 1441 1441 1441 1440 1439 1438 1438 1437 1437 1437 1437 1436 1436 1435 1434 1433 1433 1432 1431 1430 1429 1427 1426 1425 1423 1421 1419 1415
1441 1441 1441 1440 1440 1440 1440 1440 1440 1441 1441 1441 1441 1440 1440 1440 1439 1439 1438 1438 1437 1437 1436 1436 1436 1436 1436 1435 1435 1434 1433 1433 1431 1430 1429 1428 1427 1426 1425 1423 1421 1419 1416
1439 1439 1439 1439 1438 1438 1438 1439 1439 1439 1439 1439 1439 1438 1438 1438 1438 1437 1437 1437 1436 1436 1435 1435 1435 1435 1435 1434 1434 1433 1433 1432 1431 1430 1429 1428 1427 1426 1424 1423 1421 1419 1416
1437 1437 1437 1437 1437 1437 1437 1437 1437 1437 1437 1437 1437 1437 1437 1437 1436 1436 1436 1435 1435 1435 1435 1435 1435 1435 1434 1434 1433 1433 1433 1432 1431 1430 1429 1428 1427 1426 1424 1422 1420 1418 1416
1436 1435 1435 1435 1435 1435 1435 1435 1435 1435 1435 1435 1435 1435 1435 1435 1435 1435 1434 1434 1434 1434 1434 1434 1434 1434 1434 1434 1433 1433 1432 1432 1431 1430 1429 1428 1427 1425 1424 1422 1420 1418 1415
1434 1434 1434 1434 1434 1434 1434 1434 1434 1434 1434 1434 1434 1434 1434 1434 1434 1434 1434 1433 1433 1433 1433 1433 1433 1433 1433 1433 1433 1433 1432 1432 1431 1430 1429 1428 1426 1425 1423 1422 1420 1417 1415
1432 1432 1432 1432 1432 1432 1432 1433 1433 1433 1433 1433 1434 1434 1434 1434 1434 1433 1433 1433 1433 1433 1433 1432 1433 1433 1433 1433 1433 1432 1432 1431 1431 1430 1429 1428 1426 1425 1423 1421 1420 1417 1415
1431 1430 1431 1431 1431 1431 1431 1431 1431 1432 1432 1432 1433 1433 1433 1433 1433 1433 1433 1433 1433 1433 1432 1432 1432 1432 1432 1433 1432 1432 1431 1431 1431 1430 1429 1427 1426 1424 1423 1421 1419 1417 1415
1430 1430 1430 1430 1430 1430 1430 1430 1430 1430 1431 1431 1432 1432 1432 1432 1432 1432 1432 1432 1432 1432 1431 1431 1431 1432 1432 1432 1432 1431 1431 1430 1430 1429 1428 1427 1425 1424 1422 1421 1419 1417 1415
1429 1428 1429 1429 1429 1429 1430 1430 1430 1430 1430 1430 1431 1431 1431 1432 1432 1432 1432 1431 1431 1431 1431 1431 1431 1431 1431 1431 1431 1431 1430 1429 1429 1428 1427 1426 1425 1423 1422 1420 1419 1417 1415
1427 1427 1428 1428 1428 1428 1429 1429 1429 1429 1429 1429 1429 1430 1430 1430 1430 1430 1431 1431 1431 1431 1431 1430 1430 1430 1430 1430 1430 1429 1429 1428 1428 1427 1426 1425 1424 1422 1421 1420 1418 1416 1415
1426 1426 1426 1427 1427 1427 1427 1428 1428 1428 1428 1429 1429 1429 1429 1429 1430 1430 1430 1430 1430 1430 1429 1429 1429 1429 1429 1428 1428 1428 1427 1427 1426 1425 1424 1423 1422 1421 1420 1419 1417 1416 1414
1425 1425 1425 1425 1426 1426 1426 1427 1427 1427 1428 1428 1428 1428 1429 1429 1429 1429 1429 1429 1429 1429 1428 1428 1427 1427 1427 1427 1426 1426 1425 1425 1424 1423 1423 1422 1421 1420 1419 1418 1416 1415 1414
1424 1424 1424 1424 1425 1425 1425 1425 1426 1426 1427 1427 1427 1427 1428 1428 1428 1428 1428 1428 1428 1427 1427 1426 1426 1426 1425 1425 1424 1424 1423 1422 1422 1421 1421 1420 1419 1418 1417 1416 1415 1414 1413
1422 1422 1422 1423 1423 1423 1424 1424 1424 1425 1425 1426 1426 1427 1427 1427 1427 1427 1427 1426 1426 1425 1425 1424 1424 1424 1423 1422 1422 1421 1421 1420 1420 1419 1419 1418 1417 1416 1415 1414 1414 1413 1412
1421 1421 1421 1422 1422 1422 1423 1423 1423 1424 1424 1424 1425 1425 1426 1426 1426 1425 1425 1425 1424 1424 1423 1422 1422 1421 1421 1420 1420 1419 1419 1418 1418 1417 1416 1416 1415 1414 1414 1413 1412 1411 1411
1420 1420 1420 1421 1421 1421 1421 1422 1422 1423 1423 1423 1423 1424 1424 1424 1424 1423 1423 1423 1422 1421 1421 1420 1419 1419 1418 1418 1417 1417 1416 1416 1415 1415 1414 1413 1413 1412 1412 1411 1411 1410 1410